| time (UTC) | temp F | wind direction | speed knots | gust knots | rain 1hr in | rain 24hr in | rain mn in | humidity % | barometer mb |
| 20260906220110 | 87 | 203 | 10.4 | 15.6 | 0.00 | 0.00 | 0.00 | 15 | 1014.2 |
| 20260906214617 | 88 | 202 | 11.3 | 17.4 | 0.00 | 0.00 | 0.00 | 16 | 1014.3 |
| 20260906213111 | 87 | 360 | 12.2 | 17.4 | 0.00 | 0.00 | 0.00 | 17 | 1014.4 |
| 20260906211606 | 88 | 360 | 7.8 | 14.8 | 0.00 | 0.00 | 0.00 | 18 | 1014.3 |
| 20260906210105 | 89 | 193 | 10.4 | 17.4 | 0.00 | 0.00 | 0.00 | 17 | 1014.5 |
| 20260906204616 | 88 | 198 | 10.4 | 17.4 | 0.00 | 0.00 | 0.00 | 19 | 1015.0 |
| 20260906203106 | 89 | 190 | 12.2 | 18.2 | 0.00 | 0.00 | 0.00 | 19 | 1015.4 |
| 20260906201607 | 89 | 182 | 10.4 | 18.2 | 0.00 | 0.00 | 0.00 | 18 | 1015.4 |
| 20260906200106 | 89 | 198 | 13.9 | 20.9 | 0.00 | 0.00 | 0.00 | 17 | 1015.7 |
| 20260906194603 | 88 | 360 | 13.0 | 17.4 | 0.00 | 0.00 | 0.00 | 17 | 1015.5 |
| 20260906193107 | 88 | 360 | 11.3 | 22.6 | 0.00 | 0.00 | 0.00 | 19 | 1015.6 |
| 20260906191613 | 87 | 181 | 7.8 | 16.5 | 0.00 | 0.00 | 0.00 | 17 | 1015.8 |
| 20260906190104 | 88 | 192 | 11.3 | 20.0 | 0.00 | 0.00 | 0.00 | 20 | 1016.1 |
| 20260906184606 | 87 | 360 | 12.2 | 20.9 | 0.00 | 0.00 | 0.00 | 19 | 1016.1 |
| 20260906183108 | 87 | 175 | 7.8 | 14.8 | 0.00 | 0.00 | 0.00 | 18 | 1016.5 |
| 20260906181613 | 86 | 360 | 8.7 | 15.6 | 0.00 | 0.00 | 0.00 | 20 | 1016.8 |
| 20260906180116 | 85 | 276 | 11.3 | 16.5 | 0.00 | 0.00 | 0.00 | 21 | 1017.2 |
| 20260906174607 | 85 | 360 | 9.6 | 16.5 | 0.00 | 0.00 | 0.00 | 23 | 1017.4 |
| 20260906173107 | 84 | 360 | 12.2 | 19.1 | 0.00 | 0.00 | 0.00 | 23 | 1017.5 |
| 20260906171607 | 83 | 360 | 11.3 | 16.5 | 0.00 | 0.00 | 0.00 | 23 | 1017.7 |
| 20260906170110 | 82 | 194 | 11.3 | 15.6 | 0.00 | 0.00 | 0.00 | 26 | 1017.9 |
| 20260906164607 | 81 | 360 | 10.4 | 15.6 | 0.00 | 0.00 | 0.00 | 27 | 1018.0 |
| 20260906163124 | 79 | 360 | 11.3 | 15.6 | 0.00 | 0.00 | 0.00 | 30 | 1018.1 |
| 20260906161621 | 78 | 360 | 10.4 | 14.8 | 0.00 | 0.00 | 0.00 | 33 | 1018.2 |
| 20260906160113 | 77 | 194 | 10.4 | 13.9 | 0.00 | 0.00 | 0.00 | 35 | 1018.2 |
| 20260906154607 | 75 | 196 | 7.0 | 11.3 | 0.00 | 0.00 | 0.00 | 40 | 1018.5 |
| 20260906153122 | 74 | 360 | 7.0 | 10.4 | 0.00 | 0.00 | 0.00 | 42 | 1018.5 |
| 20260906151611 | 72 | 360 | 6.1 | 10.4 | 0.00 | 0.00 | 0.00 | 45 | 1018.4 |
| 20260906150110 | 68 | 346 | 0.0 | 2.6 | 0.00 | 0.00 | 0.00 | 51 | 1018.6 |
| 20260906144605 | 67 | 0 | 0.9 | 2.6 | 0.00 | 0.00 | 0.00 | 52 | 1018.6 |
| 20260906143106 | 64 | 0 | 0.0 | 1.7 | 0.00 | 0.00 | 0.00 | 60 | 1018.6 |
| 20260906141604 | 62 | 0 | 0.0 | 0.9 | 0.00 | 0.00 | 0.00 | 63 | 1018.6 |
| 20260906140108 | 58 | 347 | 0.9 | 3.5 | 0.00 | 0.00 | 0.00 | 67 | 1018.6 |
| 20260906134607 | 55 | 347 | 0.9 | 2.6 | 0.00 | 0.00 | 0.00 | 67 | 1018.7 |
| 20260906133127 | 53 | 0 | 0.0 | 1.7 | 0.00 | 0.00 | 0.00 | 72 | 1018.5 |
| 20260906131617 | 51 | 0 | 0.0 | 1.7 | 0.00 | 0.00 | 0.00 | 75 | 1018.4 |
| 20260906130113 | 51 | 347 | 0.9 | 2.6 | 0.00 | 0.00 | 0.00 | 72 | 1018.3 |
| 20260906124604 | 51 | 0 | 0.0 | 2.6 | 0.00 | 0.00 | 0.00 | 72 | 1018.3 |
| 20260906123107 | 49 | 347 | 0.9 | 3.5 | 0.00 | 0.00 | 0.00 | 74 | 1018.3 |
| 20260906121606 | 50 | 0 | 0.0 | 0.0 | 0.00 | 0.00 | 0.00 | 72 | 1018.4 |
| 20260906120110 | 50 | 0 | 0.0 | 0.9 | 0.00 | 0.00 | 0.00 | 71 | 1018.4 |
| 20260906114604 | 51 | 0 | 0.0 | 0.9 | 0.00 | 0.00 | 0.00 | 69 | 1018.3 |
| 20260906113105 | 52 | 0 | 0.0 | 1.7 | 0.00 | 0.00 | 0.00 | 68 | 1018.4 |
| 20260906111606 | 53 | 0 | 1.7 | 3.5 | 0.00 | 0.00 | 0.00 | 65 | 1018.3 |
| 20260906110108 | 55 | 0 | 0.0 | 4.3 | 0.00 | 0.00 | 0.00 | 62 | 1018.4 |
| 20260906104611 | 57 | 349 | 0.9 | 4.3 | 0.00 | 0.00 | 0.00 | 59 | 1018.3 |
| 20260906103107 | 57 | 355 | 0.9 | 5.2 | 0.00 | 0.00 | 0.00 | 59 | 1018.3 |
| 20260906101605 | 57 | 351 | 0.9 | 3.5 | 0.00 | 0.00 | 0.00 | 58 | 1018.3 |
| 20260906100112 | 58 | 351 | 1.7 | 4.3 | 0.00 | 0.00 | 0.00 | 58 | 1018.0 |
| 20260906094619 | 58 | 344 | 0.9 | 5.2 | 0.00 | 0.00 | 0.00 | 57 | 1018.0 |
| 20260906093110 | 59 | 340 | 1.7 | 4.3 | 0.00 | 0.00 | 0.00 | 56 | 1018.0 |
| 20260906091607 | 58 | 0 | 0.9 | 3.5 | 0.00 | 0.00 | 0.00 | 57 | 1018.0 |
| 20260906090120 | 58 | 0 | 0.9 | 2.6 | 0.00 | 0.00 | 0.00 | 56 | 1017.9 |
| 20260906084606 | 58 | 344 | 0.0 | 2.6 | 0.00 | 0.00 | 0.00 | 57 | 1017.9 |
| 20260906083105 | 58 | 344 | 0.9 | 3.5 | 0.00 | 0.00 | 0.00 | 58 | 1018.0 |
| 20260906081604 | 59 | 344 | 1.7 | 3.5 | 0.00 | 0.00 | 0.00 | 55 | 1017.8 |
| 20260906080105 | 60 | 342 | 0.0 | 3.5 | 0.00 | 0.00 | 0.00 | 54 | 1017.9 |
| 20260906074602 | 61 | 345 | 3.5 | 7.0 | 0.00 | 0.00 | 0.00 | 51 | 1017.9 |
| 20260906073105 | 61 | 355 | 4.3 | 7.8 | 0.00 | 0.00 | 0.00 | 52 | 1017.9 |
| 20260906071605 | 58 | 355 | 1.7 | 4.3 | 0.00 | 0.00 | 0.00 | 59 | 1017.8 |
| 20260906070107 | 58 | 0 | 0.0 | 1.7 | 0.00 | 0.00 | 0.00 | 58 | 1018.0 |
| 20260906064611 | 62 | 0 | 1.7 | 7.0 | 0.00 | 0.00 | 0.00 | 51 | 1017.7 |
| 20260906063107 | 62 | 340 | 2.6 | 5.2 | 0.00 | 0.00 | 0.00 | 52 | 1017.7 |
| 20260906061607 | 62 | 342 | 2.6 | 5.2 | 0.00 | 0.00 | 0.00 | 51 | 1017.8 |
| 20260906060108 | 61 | 344 | 2.6 | 3.5 | 0.00 | 0.00 | 0.00 | 53 | 1017.6 |
| 20260906054605 | 63 | 0 | 0.9 | 7.0 | 0.00 | 0.00 | 0.00 | 49 | 1017.6 |
| 20260906053106 | 62 | 355 | 3.5 | 7.8 | 0.00 | 0.00 | 0.00 | 51 | 1017.5 |
| 20260906051605 | 63 | 352 | 5.2 | 8.7 | 0.00 | 0.00 | 0.00 | 49 | 1017.5 |
| 20260906050107 | 64 | 350 | 4.3 | 8.7 | 0.00 | 0.00 | 0.00 | 48 | 1017.6 |
| 20260906044603 | 65 | 355 | 4.3 | 7.8 | 0.00 | 0.00 | 0.00 | 45 | 1017.5 |
| 20260906043104 | 64 | 350 | 2.6 | 5.2 | 0.00 | 0.00 | 0.00 | 47 | 1017.6 |
| 20260906041608 | 65 | 350 | 4.3 | 7.0 | 0.00 | 0.00 | 0.00 | 45 | 1017.5 |
| 20260906040106 | 68 | 344 | 3.5 | 13.0 | 0.00 | 0.00 | 0.00 | 40 | 1017.5 |
| 20260906034602 | 68 | 360 | 1.7 | 3.5 | 0.00 | 0.00 | 0.00 | 38 | 1017.6 |
| 20260906033107 | 69 | 360 | 0.9 | 3.5 | 0.00 | 0.00 | 0.00 | 38 | 1017.5 |
| 20260906031604 | 69 | 360 | 1.7 | 3.5 | 0.00 | 0.00 | 0.00 | 40 | 1017.5 |
| 20260906024608 | 73 | 0 | 0.0 | 0.0 | 0.00 | 0.00 | 0.00 | 31 | 1017.2 |
| 20260906023103 | 74 | 0 | 0.0 | 0.0 | 0.00 | 0.00 | 0.00 | 31 | 1017.0 |
| 20260906021607 | 74 | 0 | 0.0 | 0.0 | 0.00 | 0.00 | 0.00 | 30 | 1017.0 |
| 20260906020110 | 75 | 0 | 0.0 | 2.6 | 0.00 | 0.00 | 0.00 | 30 | 1016.9 |
| 20260906014616 | 76 | 360 | 0.0 | 2.6 | 0.00 | 0.00 | 0.00 | 31 | 1016.6 |
| 20260906013108 | 78 | 250 | 1.7 | 4.3 | 0.00 | 0.00 | 0.00 | 31 | 1016.5 |
| 20260906011619 | 79 | 360 | 2.6 | 4.3 | 0.00 | 0.00 | 0.00 | 29 | 1016.5 |
| 20260906010105 | 82 | 360 | 4.3 | 9.6 | 0.00 | 0.00 | 0.00 | 26 | 1016.5 |
| 20260906004612 | 83 | 360 | 4.3 | 9.6 | 0.00 | 0.00 | 0.00 | 26 | 1016.4 |
| 20260906003113 | 85 | 360 | 5.2 | 13.0 | 0.00 | 0.00 | 0.00 | 24 | 1016.3 |
| 20260906001605 | 86 | 360 | 8.7 | 13.0 | 0.00 | 0.00 | 0.00 | 23 | 1016.2 |
| 20260906000108 | 87 | 360 | 11.3 | 15.6 | 0.00 | 0.00 | 0.00 | 24 | 1016.3 |
| 20260905234606 | 88 | 360 | 9.6 | 13.9 | 0.00 | 0.00 | 0.00 | 23 | 1016.2 |
| 20260905233136 | 88 | 360 | 7.0 | 13.0 | 0.00 | 0.00 | 0.00 | 24 | 1016.1 |
| 20260905231610 | 88 | 183 | 7.8 | 12.2 | 0.00 | 0.00 | 0.00 | 24 | 1016.1 |
| 20260905230108 | 88 | 360 | 10.4 | 14.8 | 0.00 | 0.00 | 0.00 | 23 | 1016.1 |
| 20260905224623 | 87 | 182 | 8.7 | 21.7 | 0.00 | 0.00 | 0.00 | 23 | 1016.2 |
| 20260905223108 | 88 | 360 | 2.6 | 16.5 | 0.00 | 0.00 | 0.00 | 25 | 1016.3 |
| 20260905221608 | 88 | 360 | 7.8 | 12.2 | 0.00 | 0.00 | 0.00 | 22 | 1016.4 |